GFSNGP_sfc_thetae_057.txt.gz
Theta_e
287 288 289 289 290 292 291 295 295 297 293 298 300 302 304 310 309 310 321 326 329 331 333 334 335 335 338 341 343 344 343 343 344 346 348 349 348 346 345 346 350 348 346 346
284 288 289 288 292 295 296 298 295 294 296 300 300 308 312 310 309 313 323 328 331 333 333 333 334 335 336 339 342 344 344 344 345 345 347 349 350 349 348 346 346 349 347 346
279 290 293 292 295 297 300 299 298 294 297 302 312 317 317 317 313 315 325 328 331 333 333 334 335 335 335 337 341 344 344 346 346 347 346 348 350 351 351 349 348 345 347 347
278 286 288 294 300 300 298 298 299 301 304 314 317 317 317 321 321 322 322 329 332 334 334 335 336 336 336 338 339 342 344 345 347 348 349 349 350 351 352 353 351 349 347 348
280 286 294 296 296 295 294 294 299 301 309 317 320 320 315 317 323 324 328 330 326 331 333 333 335 336 335 336 337 341 343 345 347 349 349 351 351 351 353 353 354 354 353 351
285 287 287 293 297 302 302 290 300 300 302 307 313 306 307 312 320 321 327 332 337 335 332 330 331 336 335 335 335 336 342 345 348 350 350 350 352 353 353 355 354 356 356 357
285 287 292 297 298 303 289 290 298 299 299 303 302 304 306 309 309 315 320 324 338 342 345 343 332 336 334 335 335 337 338 340 344 350 351 352 353 354 355 354 355 355 355 357
289 287 287 299 300 292 294 297 298 298 298 299 303 306 306 307 307 309 311 318 324 329 334 342 348 338 336 337 336 342 341 340 342 343 348 352 352 353 354 354 353 353 353 354
285 289 297 299 301 300 299 297 297 297 299 299 301 304 305 305 306 307 308 311 319 320 322 329 339 346 345 345 347 344 343 343 344 346 346 347 349 350 352 352 351 351 352 352
288 294 292 295 299 300 301 300 300 301 300 300 300 304 303 305 305 306 306 308 311 320 319 321 326 336 343 346 345 343 343 345 343 345 346 349 350 350 350 351 351 351 351 352
289 292 295 298 300 301 301 303 303 303 303 302 300 302 303 304 304 305 305 306 309 311 319 318 321 324 333 343 343 341 340 342 343 345 342 344 342 337 349 352 345 352 353 354
288 295 294 295 299 302 301 301 302 302 302 303 302 304 303 303 304 305 305 307 310 311 317 319 319 321 325 335 339 339 338 338 339 342 345 343 334 323 304 303 302 302 305 328
295 300 298 301 301 303 301 302 304 304 304 302 303 305 305 303 304 307 305 307 309 310 315 316 317 318 320 327 332 337 336 338 341 339 344 336 333 332 331 316 301 298 298 303
300 300 298 300 298 302 303 305 307 307 305 304 304 304 306 304 303 305 306 306 308 309 310 312 315 315 317 319 324 329 334 323 338 342 343 341 335 334 333 330 328 326 305 303
300 301 300 303 304 304 304 305 304 304 305 304 304 303 304 304 302 304 306 307 307 307 307 308 313 316 320 320 321 326 332 335 338 338 339 340 339 334 332 330 329 325 320 311
301 300 300 299 301 302 302 300 300 301 302 304 303 304 304 303 303 303 304 304 304 303 306 307 311 317 319 320 323 327 333 329 327 334 336 338 341 337 331 328 325 323 326 325
297 295 297 297 298 300 301 302 303 304 305 306 306 305 303 305 305 305 306 306 306 306 308 309 313 317 318 320 322 329 334 337 332 334 334 335 342 340 335 329 327 325 327 323
302 302 300 299 299 299 299 300 300 302 303 305 306 306 306 305 305 306 307 310 309 309 312 313 313 313 316 319 321 326 333 335 334 333 332 333 339 339 332 328 326 325 324 317
301 300 302 301 300 300 300 300 299 299 299 303 303 302 303 303 305 307 307 306 305 306 308 311 314 316 312 316 321 322 331 333 332 330 329 323 326 326 325 326 325 324 324 322
300 300 301 299 300 300 298 299 301 299 299 299 299 299 300 301 302 304 305 302 303 305 309 312 313 313 310 313 320 320 325 328 327 324 324 325 324 322 320 315 322 321 320 321
299 299 299 299 298 299 300 300 299 299 299 298 297 296 297 299 300 301 300 300 303 306 307 309 311 311 313 309 311 313 314 316 321 323 322 320 319 318 318 318 317 314 312 310
298 299 299 299 300 300 301 302 301 301 300 299 298 297 296 296 297 298 300 299 303 305 304 304 306 311 311 310 307 307 306 307 308 307 307 308 309 308 306 306 306 305 304 304
298 299 300 299 298 299 300 300 300 300 299 299 299 299 297 297 297 295 294 299 302 303 302 303 305 306 308 307 307 305 304 302 301 302 300 299 298 297 297 297 297 299 299 299
295 298 298 299 299 299 296 297 298 299 299 300 299 300 300 297 297 300 300 300 301 301 302 303 303 304 303 303 304 304 304 303 302 301 300 298 299 298 297 295 294 295 295 295
291 292 292 294 294 296 297 297 297 297 296 295 298 299 299 301 297 299 301 299 300 300 300 302 302 302 301 301 301 300 300 301 301 300 299 298 297 296 296 295 294 294 294 294
288 288 288 289 290 289 290 292 290 290 291 292 293 294 295 298 300 300 299 298 299 299 299 300 300 300 300 299 299 298 298 299 300 300 298 298 297 296 296 295 295 294 294 293
288 290 288 288 288 289 289 289 289 289 291 292 292 294 295 295 295 296 297 295 296 298 298 298 299 299 299 298 298 297 297 296 295 297 297 298 298 298 297 296 295 295 294 293

GFSNGP_sfc_thetae_060.txt.gz
Theta_e
285 287 288 287 287 289 288 289 287 296 295 299 301 304 305 304 309 310 311 324 327 328 329 332 334 337 339 340 341 341 340 343 343 344 345 345 346 348 350 348 345 345 345 346
284 288 288 287 289 290 291 292 292 295 295 302 305 309 316 317 319 314 310 313 326 328 329 331 334 336 339 340 341 342 340 340 344 345 346 345 345 344 345 348 350 350 347 346
278 286 286 284 289 293 296 296 297 292 298 303 312 314 312 314 319 320 321 313 319 327 330 332 335 336 338 340 342 342 342 342 343 345 346 347 348 347 346 344 345 348 349 349
278 284 281 292 300 299 296 295 296 297 304 311 314 314 313 311 314 320 325 323 325 329 332 334 336 336 338 341 342 342 342 343 344 345 345 347 348 348 349 349 347 345 346 348
278 282 290 296 296 295 292 293 296 295 298 305 314 318 314 309 310 315 325 332 328 332 333 335 336 337 337 338 340 342 342 343 345 346 346 346 346 348 350 351 350 349 349 348
285 281 287 292 296 300 300 288 297 296 295 298 313 302 303 308 311 313 323 337 333 331 332 332 334 336 335 336 338 340 343 345 347 348 348 348 348 348 351 352 352 353 352 353
282 285 291 294 298 302 291 289 297 297 296 297 300 303 307 309 309 312 318 322 337 342 341 334 335 336 334 335 336 340 344 346 348 349 349 351 352 353 352 352 353 354 355 356
285 286 286 296 298 292 295 298 297 297 298 297 301 305 306 307 308 310 311 317 323 331 337 343 338 335 334 335 338 339 343 345 347 349 351 351 351 352 354 353 353 353 354 355
286 286 294 297 297 297 299 298 298 298 300 299 299 302 304 305 306 310 312 315 320 322 328 333 345 346 344 344 343 343 340 341 343 348 350 352 352 352 352 354 353 353 353 353
288 292 295 297 300 302 301 301 302 301 301 302 300 301 302 305 305 307 310 312 317 319 320 321 326 334 341 344 345 347 346 346 347 345 344 347 352 353 353 352 352 352 352 352
289 294 297 298 300 301 302 303 303 303 303 303 302 303 302 304 305 306 308 310 313 314 314 316 320 322 326 334 343 342 342 345 348 349 347 349 349 346 351 354 345 352 353 354
289 295 295 296 300 302 301 301 303 303 304 305 304 302 305 304 306 306 307 309 311 312 313 314 316 317 321 325 332 338 340 342 342 347 350 348 344 335 305 306 303 302 305 324
295 299 300 301 302 303 302 303 304 304 305 305 305 304 305 305 305 308 308 308 309 310 311 313 314 316 320 323 325 328 331 337 341 339 347 345 341 338 338 320 302 300 301 302
300 300 298 300 299 303 304 304 306 306 307 307 306 306 305 305 306 305 307 308 308 309 309 310 311 312 317 321 321 323 327 317 334 341 344 346 343 340 340 338 338 334 304 304
298 300 299 300 301 301 303 303 301 303 304 304 305 305 305 304 304 305 306 308 308 308 308 309 309 310 314 319 319 320 324 330 335 338 340 336 344 343 339 338 338 336 327 311
299 299 299 298 298 298 299 299 300 302 304 305 305 305 306 305 305 306 307 307 306 306 307 309 310 312 316 319 319 320 324 323 324 336 339 340 342 342 340 338 337 334 331 333
297 295 297 297 297 298 297 298 298 298 301 304 305 306 306 307 307 307 308 310 310 310 311 312 311 314 315 315 317 319 321 327 328 336 338 339 340 342 340 338 337 334 334 329
298 301 300 299 297 298 298 298 298 298 297 300 302 303 302 302 304 305 305 306 307 308 308 309 311 313 313 315 317 318 320 324 330 334 337 338 339 343 341 338 335 333 330 321
300 299 298 299 299 299 299 298 298 298 298 298 298 298 299 300 301 303 305 303 303 303 304 309 313 314 314 315 317 319 320 322 326 333 335 327 331 337 339 335 332 331 330 324
299 300 300 299 299 298 297 298 299 299 299 297 297 296 296 297 299 300 301 300 301 303 305 306 308 312 313 313 315 316 319 323 325 329 332 332 331 330 328 317 327 328 328 326
299 299 299 299 298 299 300 300 299 298 299 299 296 295 295 297 298 298 297 298 301 304 304 306 306 309 310 310 309 309 312 314 319 322 320 318 314 311 310 309 308 309 309 309
299 299 299 299 298 297 298 299 299 299 297 298 298 296 295 295 296 297 299 298 301 303 303 303 304 307 308 308 305 303 304 303 302 302 301 302 302 302 301 301 301 301 301 301
297 299 299 299 298 297 298 297 297 298 298 297 297 298 296 296 296 294 294 299 301 302 302 302 304 305 304 303 304 303 301 301 300 299 298 297 296 296 296 296 296 297 296 296
296 298 298 299 299 298 296 296 297 298 299 299 299 300 300 298 298 300 300 300 301 301 301 302 302 302 302 301 301 300 300 299 298 298 297 296 296 296 295 295 294 294 295 294
291 291 292 296 294 293 293 295 296 292 293 296 297 299 301 302 300 301 301 300 300 300 300 301 301 301 299 298 298 299 299 298 298 298 297 297 296 295 295 294 294 293 293 293
289 288 289 290 290 290 291 290 290 291 292 293 294 296 297 299 300 300 300 299 299 300 300 300 299 299 298 298 297 297 297 297 298 298 298 297 296 295 294 294 293 292 292 292
289 290 289 290 289 290 290 290 291 291 291 292 293 294 296 297 297 297 297 298 298 299 299 299 299 298 298 297 297 297 297 296 295 296 296 296 297 297 296 295 294 293 293 292

GFSNGP_sfc_thetae_063.txt.gz
Theta_e
289 289 289 288 289 291 291 294 294 300 302 308 313 314 319 320 317 319 319 331 335 335 339 341 343 348 349 350 350 350 350 350 352 354 356 357 357 357 355 356 357 358 358 357
286 289 290 287 290 292 293 294 295 298 300 309 313 322 317 321 324 325 327 325 332 337 340 341 341 345 348 349 349 351 351 351 354 355 356 356 357 357 357 355 355 356 355 356
282 288 289 286 291 293 295 299 298 297 305 312 313 319 316 317 319 321 326 331 331 331 341 342 341 345 346 349 351 350 351 352 354 355 355 356 357 357 358 358 357 357 355 355
283 285 277 292 302 300 298 299 300 302 305 309 318 320 319 318 317 319 323 328 334 337 331 341 342 342 348 349 350 350 350 351 354 355 355 356 356 355 357 355 357 358 357 358
281 281 288 296 298 299 299 296 300 300 303 307 317 323 322 315 316 318 322 329 336 342 330 341 342 347 348 349 349 349 350 351 352 354 355 356 355 356 357 355 354 355 356 358
284 280 283 293 299 302 303 295 300 301 302 305 317 314 312 312 313 318 325 332 342 340 337 339 344 344 348 346 349 349 351 352 354 355 355 355 357 358 359 357 356 355 355 357
283 281 286 294 297 302 292 294 301 302 303 305 306 308 309 311 316 322 328 334 345 342 341 346 348 348 347 349 348 351 351 353 356 357 356 358 358 360 360 358 359 358 358 360
284 280 280 293 296 295 299 301 301 303 304 304 306 307 308 309 313 317 322 328 339 343 342 344 348 348 348 349 353 356 356 354 357 358 356 355 360 359 359 359 359 359 357 358
288 288 295 295 297 304 305 302 302 303 305 305 305 305 308 309 311 311 313 315 322 330 332 337 349 348 346 350 352 355 356 357 357 359 357 360 359 358 356 358 355 356 355 355
289 293 294 296 301 303 305 305 304 305 305 305 303 306 309 311 311 312 311 312 314 318 319 324 330 334 340 351 353 351 353 354 355 355 356 358 356 356 355 355 355 355 355 355
290 293 296 297 300 303 303 305 305 306 306 306 305 305 308 310 313 314 315 314 313 313 314 317 323 327 328 336 353 353 351 350 351 351 354 355 357 355 356 361 350 356 357 358
288 295 297 297 303 305 304 305 305 305 305 307 308 306 307 310 311 312 315 316 313 313 313 315 318 321 325 327 332 344 348 353 349 354 354 353 352 350 308 311 307 306 308 331
294 299 299 301 303 305 304 305 306 306 307 306 307 307 308 309 311 311 314 317 316 316 316 316 318 321 324 327 326 327 332 339 343 342 355 350 353 352 351 326 304 303 304 304
300 299 296 298 297 301 302 305 307 306 307 306 306 307 308 309 311 312 312 314 316 317 318 318 319 319 322 324 326 326 327 316 341 347 350 354 351 350 351 350 351 353 311 311
299 301 299 300 300 300 301 301 300 300 304 305 308 309 309 308 310 313 315 316 316 317 317 318 318 319 322 322 323 324 323 323 330 339 346 343 352 353 351 349 349 353 343 316
300 299 299 298 297 298 298 298 297 297 299 302 304 305 307 309 310 311 313 315 313 313 315 315 316 317 319 320 320 322 323 319 319 329 339 346 348 349 349 350 351 352 352 351
298 295 297 296 297 297 297 298 298 297 298 299 300 303 304 306 306 305 306 308 311 313 314 310 309 315 318 319 319 319 321 323 320 326 331 339 345 346 348 348 348 349 351 347
302 301 300 300 297 297 297 298 298 299 297 298 299 299 300 300 300 303 304 305 306 306 306 309 311 315 316 316 318 318 319 322 324 325 328 333 340 345 347 347 346 345 349 345
302 301 302 302 301 299 298 299 299 299 298 298 298 297 298 299 299 300 303 302 301 301 303 307 311 312 313 315 317 319 318 321 325 326 328 326 335 338 342 346 343 343 344 345
302 302 302 302 302 300 299 300 300 300 301 299 298 297 296 297 299 299 301 299 300 302 305 306 306 309 311 313 314 315 316 320 325 328 328 330 331 334 339 320 335 336 335 332
303 302 302 302 301 301 302 302 301 300 300 300 297 296 295 297 298 299 297 297 301 304 305 305 305 305 308 308 307 307 307 307 308 309 312 317 320 319 317 316 316 314 312 312
304 303 303 303 301 301 302 303 303 302 300 300 299 298 297 296 296 297 299 298 301 303 303 302 302 305 304 305 302 302 301 301 300 300 299 300 301 301 301 302 302 302 302 302
303 304 303 303 303 304 305 304 303 304 302 301 300 300 299 299 299 297 295 300 301 302 302 302 302 303 303 301 300 299 299 298 297 297 297 297 296 296 296 296 296 297 296 296
304 305 305 305 305 303 301 302 303 302 302 302 302 302 301 300 301 303 304 302 301 301 301 301 301 301 300 299 299 299 298 298 297 297 296 295 295 295 294 294 293 293 294 293
300 300 301 300 299 298 298 299 299 299 300 300 300 302 302 302 301 301 302 302 301 302 302 301 300 299 298 297 296 296 297 297 297 297 296 295 294 294 293 293 292 292 292 292
299 298 298 299 298 299 298 298 298 298 300 300 300 300 301 302 302 302 302 301 301 300 301 301 301 300 299 298 296 295 295 295 296 297 296 296 296 295 294 293 293 293 292 292
298 294 298 298 298 298 298 298 298 297 299 300 300 300 301 301 300 301 300 301 301 301 301 300 300 299 299 298 298 298 297 297 295 296 296 297 297 296 294 294 293 292 291 291

GFSNGP_sfc_thetae_069.txt.gz
Theta_e
296 297 297 296 297 299 300 304 300 304 306 312 315 317 319 322 325 324 325 327 331 333 336 345 354 358 359 356 359 356 358 358 360 365 367 368 366 368 368 370 370 372 372 370
293 297 296 293 295 296 297 299 300 302 304 314 315 318 320 321 325 325 328 329 330 333 336 340 345 357 360 359 360 360 360 359 362 366 367 367 366 367 369 369 370 371 370 369
289 293 294 290 294 295 297 299 299 297 304 312 312 314 317 321 327 328 329 330 334 336 339 342 343 354 357 360 361 362 363 363 364 367 367 368 367 367 368 369 370 371 370 370
289 291 283 295 300 299 298 300 301 302 304 308 311 315 318 322 326 329 331 333 335 337 338 340 343 345 355 357 361 363 362 366 365 368 367 369 369 368 369 369 369 370 370 371
286 287 291 294 297 298 296 298 306 304 305 306 311 314 315 321 323 330 332 335 338 340 340 343 343 344 354 356 361 361 363 365 366 367 368 370 368 368 370 369 369 370 372 372
289 285 282 293 300 302 302 293 306 307 306 306 310 305 312 322 330 331 335 339 340 344 346 345 346 346 349 355 361 360 364 364 367 369 369 369 370 371 371 371 369 363 367 371
289 287 290 298 301 301 291 294 304 309 311 310 310 314 321 325 327 329 332 338 344 347 351 352 350 349 351 353 355 363 362 365 369 369 370 372 373 373 372 369 366 369 369 371
290 286 284 302 300 293 301 301 301 310 312 315 316 318 319 320 322 325 328 337 343 348 354 356 354 359 357 357 361 369 366 366 368 370 366 365 372 372 373 371 370 371 368 367
291 291 301 302 301 304 306 299 299 304 311 312 311 313 314 317 320 322 323 327 336 340 342 344 354 356 355 369 367 370 367 367 368 369 368 369 369 370 365 370 360 361 358 356
292 294 294 297 301 303 304 301 302 306 308 309 310 311 312 314 316 317 321 322 324 329 330 329 334 341 354 361 368 365 365 367 367 367 366 369 364 364 360 358 358 355 356 354
289 292 293 296 299 300 300 302 303 308 308 309 310 308 310 311 312 316 318 320 322 323 322 322 329 331 337 336 353 362 363 361 364 361 362 363 363 361 360 363 352 358 354 354
287 293 291 294 298 302 305 305 306 307 306 308 308 308 310 311 313 316 318 320 320 322 322 321 323 324 327 330 334 354 357 358 357 358 359 358 358 356 314 322 313 314 314 335
293 297 296 296 299 303 303 305 305 306 307 308 311 311 311 313 315 315 318 318 319 319 320 321 320 321 324 325 330 337 348 360 357 352 358 358 359 357 355 335 314 310 312 313
300 298 295 295 294 300 302 303 304 304 304 305 306 310 312 312 312 313 314 317 319 316 317 319 320 320 325 326 327 329 337 323 354 358 358 356 358 358 357 355 353 354 321 322
300 300 297 298 298 298 300 301 300 300 301 302 304 305 308 308 307 309 312 314 313 313 313 315 315 316 322 325 326 330 328 328 332 345 366 353 359 358 354 353 351 349 353 324
301 299 299 298 296 297 298 298 297 298 300 301 302 302 304 305 305 306 307 310 309 308 310 311 314 317 321 325 326 333 335 324 328 339 345 348 353 347 347 346 345 344 347 349
298 298 298 297 297 297 297 299 298 298 299 300 300 302 302 303 302 303 304 306 307 308 310 311 312 316 317 320 321 331 336 338 329 337 336 334 340 346 348 348 343 345 346 346
303 302 301 300 300 299 298 300 300 299 299 300 300 301 300 301 300 302 303 305 306 307 307 310 311 314 314 313 317 317 324 324 330 338 341 342 336 339 342 340 342 342 345 344
304 303 303 302 302 301 300 300 301 299 299 300 299 298 300 300 302 302 303 303 301 301 304 308 309 309 308 310 313 320 321 324 327 330 330 325 335 336 340 340 339 342 343 345
304 304 305 304 304 303 301 301 303 302 300 299 299 298 298 299 301 302 302 300 302 302 305 305 306 305 305 305 308 310 313 315 317 318 317 325 322 326 329 320 325 328 325 328
304 305 303 304 302 304 303 303 302 302 302 301 299 299 299 300 300 300 300 299 303 305 304 304 303 303 303 303 302 303 303 302 303 305 307 309 309 306 310 311 312 309 309 309
303 304 305 303 302 302 304 304 304 303 303 302 303 302 302 300 300 300 302 301 304 303 303 303 303 304 303 303 300 298 297 297 296 297 297 298 298 297 297 297 297 298 297 298
304 304 304 305 302 302 304 304 304 303 303 302 302 302 301 302 300 299 297 304 302 302 302 303 303 304 303 303 301 300 299 297 296 295 295 294 294 294 294 294 294 295 295 294
304 304 303 304 304 303 302 303 304 305 303 304 303 303 303 300 301 304 305 303 302 303 303 302 302 304 303 301 301 300 300 300 299 297 296 294 294 294 293 293 293 293 293 293
305 305 304 303 303 302 303 304 303 304 304 303 304 304 304 303 301 302 303 303 301 302 303 299 302 303 304 303 301 299 299 298 298 299 298 297 295 294 294 294 293 293 293 293
305 303 302 304 302 302 302 302 301 302 302 303 302 303 303 303 304 303 304 303 303 302 303 302 302 303 302 302 303 303 302 301 299 298 298 299 298 297 294 293 293 293 293 293
304 295 303 303 302 302 301 302 301 300 301 302 302 304 305 304 304 304 302 303 303 303 303 303 302 301 301 301 301 302 303 302 298 302 301 299 299 298 297 297 297 295 294 294

GFSNGP_sfc_thetae_072.txt.gz
Theta_e
296 297 298 297 297 298 298 301 298 301 305 310 311 314 320 322 324 327 329 330 332 335 342 345 350 352 353 354 353 355 356 358 358 361 361 361 360 359 354 362 363 365 365 365
292 296 296 295 297 297 298 300 302 303 303 312 313 316 318 321 322 329 331 333 335 339 339 345 348 352 353 354 354 356 355 356 359 361 361 361 360 360 360 359 362 364 364 364
288 294 294 290 296 297 298 300 300 297 304 309 308 313 315 319 316 322 329 332 335 336 339 344 349 353 355 356 357 356 356 357 359 360 360 360 361 361 361 360 361 363 363 365
289 291 282 295 301 301 298 299 300 301 302 304 306 310 314 319 316 320 328 331 333 335 338 340 341 348 358 358 357 359 357 358 358 359 359 361 361 360 361 361 361 362 363 364
285 286 291 294 298 298 297 297 302 301 304 307 308 307 310 315 320 321 326 331 334 335 337 345 346 345 350 358 357 356 359 358 359 359 359 361 360 361 361 361 361 361 363 365
289 283 282 293 300 303 302 292 303 307 307 309 312 305 306 320 326 329 332 334 336 338 339 341 347 347 345 353 359 356 356 359 363 361 362 361 362 362 362 362 361 362 363 365
288 286 289 298 299 302 289 293 306 308 308 309 309 313 321 323 325 327 328 331 336 341 343 348 356 355 351 348 355 360 359 363 361 366 363 364 365 365 363 363 363 362 362 364
290 287 284 302 300 294 301 305 305 305 307 306 308 314 318 321 322 325 326 327 333 340 343 345 344 344 355 350 359 365 364 360 365 366 364 365 365 366 366 364 363 361 362 362
291 292 301 302 300 303 303 302 303 304 305 307 306 311 315 317 320 321 324 326 326 329 335 335 337 343 347 358 363 365 366 362 365 366 365 365 364 365 364 365 362 360 360 359
290 295 296 298 301 302 302 302 304 305 305 305 305 310 312 314 316 319 320 322 324 326 327 327 330 332 337 339 343 364 365 361 365 365 362 364 365 365 364 362 362 360 359 360
289 294 293 296 296 297 297 300 302 305 304 304 308 309 311 313 315 317 318 320 322 321 321 321 324 327 331 334 339 367 364 362 363 363 361 363 362 363 363 364 359 360 359 358
286 292 291 291 295 298 299 302 307 305 303 308 308 308 311 313 315 316 317 319 319 320 319 320 321 323 328 331 334 342 363 362 360 360 361 361 359 355 315 326 318 319 327 343
293 296 297 296 297 298 297 299 304 306 307 308 310 312 312 314 315 315 315 316 318 316 317 318 318 319 322 326 329 331 336 339 358 351 358 358 359 359 354 334 309 307 313 316
299 298 294 295 293 297 297 299 303 304 304 305 306 308 310 309 309 308 310 311 314 314 313 314 314 315 319 322 326 329 326 316 332 341 355 358 359 358 358 353 351 351 316 319
300 300 298 298 298 298 299 298 296 298 301 302 304 304 305 304 305 305 308 310 310 310 310 311 313 314 318 319 321 330 326 320 324 333 337 347 360 358 357 358 357 357 355 321
300 300 299 297 297 297 298 297 295 295 298 300 301 302 304 304 304 305 305 307 306 306 308 309 309 312 316 315 316 320 328 326 323 330 335 334 344 353 347 348 349 349 350 355
298 296 298 297 298 298 298 298 298 298 298 299 300 302 302 303 303 303 303 304 307 306 307 308 308 312 312 312 313 317 319 333 328 332 334 339 338 339 344 345 346 346 344 343
302 303 301 301 299 299 300 299 298 298 298 299 301 301 301 301 300 301 303 303 303 303 304 307 309 309 310 310 312 320 322 324 331 327 329 334 334 335 341 340 338 334 338 335
303 303 303 302 302 301 301 301 299 299 299 300 299 299 300 300 301 301 302 301 300 298 300 304 307 306 307 309 312 314 314 316 318 317 320 320 328 326 321 322 324 324 323 325
304 305 304 303 304 303 302 303 303 300 300 300 300 299 299 300 301 302 301 299 300 301 302 303 302 302 302 304 307 305 306 306 306 306 305 310 310 310 311 307 309 311 312 312
304 304 303 304 304 305 304 304 303 302 302 301 300 299 299 300 301 300 299 298 301 303 303 304 303 301 301 301 301 300 300 299 298 299 300 299 299 299 300 301 302 302 301 302
304 304 304 303 303 304 304 305 304 304 303 302 303 301 300 299 301 301 302 302 302 304 303 303 302 304 302 303 300 298 297 296 295 295 295 296 295 294 294 295 295 295 295 295
304 304 304 304 303 303 304 305 305 304 303 302 302 303 302 302 301 299 298 304 302 302 303 303 304 303 302 300 300 299 299 298 296 295 295 294 294 294 293 293 293 293 293 293
306 305 304 304 306 304 303 306 304 305 304 304 303 304 304 301 302 304 304 302 302 302 302 302 303 304 303 302 301 300 299 299 298 297 296 294 295 294 294 294 293 293 293 293
306 306 305 304 302 302 305 306 304 304 304 304 304 304 304 304 302 303 303 303 301 302 302 303 304 304 304 303 302 301 299 299 299 298 298 296 295 294 294 294 294 294 293 293
306 304 303 304 303 302 302 303 302 303 304 302 302 304 304 304 304 304 304 304 304 303 301 301 301 301 301 302 302 302 302 301 300 298 298 298 297 296 295 295 294 294 293 293
305 300 303 302 303 302 301 302 302 300 302 304 303 303 304 304 303 304 302 303 303 303 302 302 301 301 301 301 301 301 302 301 299 302 301 299 298 298 297 296 296 296 296 295

GFSNGP_sfc_thetae_075.txt.gz
Theta_e
291 293 293 292 293 294 292 291 286 293 296 303 305 307 310 316 317 317 327 329 327 328 330 335 338 334 335 347 348 351 352 352 351 351 351 352 349 347 343 351 353 355 355 357
289 293 293 291 294 295 295 295 293 294 296 306 305 308 308 313 317 315 315 327 330 331 325 334 337 338 334 334 348 349 353 353 354 353 352 351 352 352 345 347 352 352 354 355
282 291 291 287 291 293 295 297 295 290 294 302 301 303 305 306 314 313 314 316 326 330 333 337 333 333 331 332 346 349 349 353 354 354 354 353 353 352 351 345 349 355 354 356
283 288 279 290 297 297 296 297 299 297 299 306 308 311 311 311 306 309 322 325 328 328 331 336 339 343 343 343 347 348 348 350 353 354 353 354 354 353 352 351 346 347 355 356
282 283 287 290 295 296 293 293 302 302 304 307 310 311 310 314 318 315 319 322 326 330 331 332 338 340 340 340 342 346 348 349 353 354 353 354 353 353 353 353 353 350 352 355
286 281 279 291 297 301 298 287 302 302 303 304 307 301 305 312 320 312 312 314 325 330 336 339 336 340 344 343 341 343 350 351 353 353 354 354 353 354 354 354 354 355 353 355
286 283 287 296 299 301 287 288 300 301 300 301 300 302 308 313 317 321 323 324 324 326 332 330 331 333 338 341 344 347 352 353 354 354 353 355 355 355 355 354 354 354 354 356
286 283 279 298 298 291 294 297 298 299 300 300 302 304 309 311 312 318 320 322 323 323 326 328 327 327 326 329 333 338 355 352 353 355 355 356 356 356 355 355 353 353 353 354
287 288 295 295 294 296 297 295 296 297 300 301 301 302 306 308 311 314 318 319 320 321 321 322 322 323 323 326 329 331 335 353 354 356 355 356 356 356 355 356 354 353 352 352
288 292 293 293 295 295 295 295 297 298 298 300 300 302 305 308 311 314 314 317 319 318 317 317 319 320 322 324 327 329 335 355 353 354 356 356 358 358 357 356 355 354 353 353
289 292 292 295 295 295 296 297 297 299 298 300 301 301 305 307 311 314 314 315 317 315 315 315 318 318 320 321 324 325 329 355 354 356 353 357 358 358 359 359 355 357 356 356
284 293 292 292 296 296 295 295 296 297 301 304 303 304 307 308 313 314 311 312 314 314 312 314 313 314 317 319 321 324 328 345 352 356 355 356 355 348 315 325 322 321 325 345
293 296 295 296 297 297 296 297 298 298 305 303 306 309 309 308 309 310 308 308 311 311 311 311 311 313 315 317 319 321 323 323 335 335 353 355 355 353 349 333 313 307 310 320
299 298 295 296 294 298 298 297 299 299 301 303 306 307 307 306 304 303 305 307 309 308 307 309 310 310 313 316 315 318 326 317 325 333 338 344 355 354 353 349 347 340 311 314
300 299 298 298 298 299 300 298 296 296 297 299 302 304 304 303 303 302 303 306 307 305 305 308 307 307 313 313 314 315 320 324 323 329 332 330 342 354 353 350 348 347 328 317
300 300 299 297 298 298 297 296 295 296 296 298 300 301 303 303 303 302 303 304 302 301 303 305 305 307 310 311 310 313 317 319 324 327 332 332 336 344 347 344 344 341 340 336
298 295 296 297 298 298 297 297 297 296 297 298 299 301 302 302 301 301 302 302 302 301 302 303 303 306 308 308 309 313 318 321 326 330 332 329 330 335 341 340 336 336 332 326
301 302 299 299 298 298 298 298 297 297 297 299 300 300 299 299 299 299 300 301 300 300 301 302 304 304 303 306 307 310 312 314 313 318 323 321 319 323 324 324 323 324 323 318
304 303 302 302 301 300 300 298 298 299 299 299 299 298 299 300 300 299 300 300 299 299 300 302 304 302 301 305 305 306 307 308 308 308 309 310 311 311 313 316 316 314 312 311
304 304 305 304 303 302 301 301 300 299 300 300 299 299 298 298 299 299 299 297 299 300 303 303 301 300 300 301 302 299 299 300 303 303 303 302 304 303 303 303 305 303 303 301
303 304 303 303 302 303 303 302 302 300 300 301 299 298 298 299 299 299 298 295 298 302 302 303 301 300 301 300 299 297 296 296 296 297 297 296 297 299 299 299 298 296 297 297
303 303 303 303 302 301 303 302 303 301 300 301 300 300 299 299 300 300 300 298 300 303 302 301 301 302 300 302 298 297 296 295 294 294 293 294 293 293 293 294 293 293 294 294
302 303 304 302 300 302 303 303 302 302 300 300 300 301 300 300 300 298 297 300 301 302 302 302 303 303 302 299 299 297 295 295 294 293 293 293 293 293 292 292 292 293 293 293
303 302 303 303 303 303 300 303 302 302 302 301 301 301 300 299 299 302 302 302 302 302 302 303 303 305 302 299 298 297 297 296 295 294 293 293 293 293 293 292 292 293 293 293
305 304 302 301 303 300 301 303 303 303 302 300 301 301 301 301 300 301 302 301 301 300 297 303 305 304 301 300 298 297 296 296 296 296 295 294 293 293 292 292 292 292 292 292
303 302 301 302 300 302 302 302 301 300 302 301 300 301 301 302 302 301 301 302 301 300 297 298 299 298 299 299 300 299 297 296 296 295 295 294 294 293 292 293 293 293 292 292
303 301 301 301 302 301 300 301 299 299 302 301 300 302 303 302 302 301 303 300 299 298 298 297 298 299 298 298 298 298 298 299 297 297 296 295 294 293 293 292 293 293 293 292